Regional Weather Roundup
Issued by NWS Midland/Odessa, TX

Home | Current Version | Previous Version | Text Only | Print | Product List | Glossary On
Versions: 1 2 3 4 5 6 7 8 9 10 11 12 13 14 15 16 17 18 19 20 21 22 23 24 25 26 27 28 29 30 31 32 33 34 35 36 37 38 39 40 41 42 43 44 45 46 47 48 49 50
000
ASUS44 KMAF 301102
RWRMAF
MIDLAND AREA WEATHER ROUNDUP
NATIONAL WEATHER SERVICE MIDLAND TX
600 AM CDT WED JUL 30 2014

...IN SOUTHWEST TEXAS AND SOUTHEAST NEW MEXICO...

CITY           SKY/WX    TMP DP  RH WIND       PRES   REMARKS
ALPINE         CLEAR     73  48  40 S8        30.19S
ANDREWS        FAIR      70  55  58 S6        30.05S
ARTESIA        MOCLDY    70  57  64 CALM      30.05S
BIG SPRING     PTCLDY    79  58  47 SE16G22   30.05S
CARLSBAD       MOCLDY    75  49  39 S3        30.01S
DRYDEN           N/A     78  53  41 NE3       30.01S
FORT STOCKTON  PTCLDY    77  51  40 S12       30.03S
GUAD PASS      MOCLDY    72  50  45 W13       30.20S
HOBBS          NOT AVBL
MARFA          CLEAR     61  52  72 NW7       30.20S
MIDLAND AIRPK  PTCLDY    77  51  40 S9        30.04S
MIDLAND INTL   PTCLDY    75  52  44 S7        30.03F
ODESSA         PTCLDY    79  50  36 S14       30.04S
PECOS          PTCLDY    78  49  36 E5        29.99S
PRESIDIO       FAIR      81  51  34 N6        30.03R
SEMINOLE       PTCLDY    68  62  82 CALM      30.07S
SNYDER         PTCLDY    71  66  85 S8        30.04S
WINK           PTCLDY    79  52  38 SE12      29.99F
$$
...OTHER STATIONS IN TEXAS...

CITY           SKY/WX    TMP DP  RH WIND       PRES   REMARKS
ABILENE        CLOUDY    76  68  76 S10       30.03R
AMARILLO       CLOUDY    66  64  93 SE13      30.07F
AUSTIN         PTCLDY    74  70  87 SE5       30.04R
BROWNSVILLE    CLEAR     76  74  93 S6        30.02S
CORPUS CHRISTI MOCLDY    75  72  90 SE5       30.02S
DALLAS FTW     CLOUDY    77  66  68 SE8       30.03S
DEL RIO        CLEAR     79  66  64 E7        29.98F
EL PASO        PTCLDY    74  65  73 CALM      30.07S
HOUSTON INT    PTCLDY    73  71  93 CALM      30.05R
LUBBOCK        MOCLDY    68  65  90 SE7       30.06S
SAN ANGELO     MOCLDY    78  62  57 S9        30.03R
SAN ANTONIO    PTCLDY    76  72  87 SE8       30.05S
WACO           MOCLDY    76  71  85 SE7       30.03F
WICHITA FALLS  NOT AVBL
$$
...OTHER LOCATIONS IN NEW MEXICO...

CITY           SKY/WX    TMP DP  RH WIND       PRES   REMARKS
ALAMAGORDO     PTCLDY    73  61  64 CALM      30.10S
ALBUQUERQUE    PTCLDY    67  59  75 NE3       30.19F
CANNON AFB     CLEAR     64  63  94 S3        30.11F
CLOVIS         NOT AVBL
HOLLOMAN AFB   PTCLDY    70  64  83 NW2       30.08S
ROSWELL        PTCLDY    70  67  90 CALM      30.05S
RUIDOSO        CLEAR     59  55  88 SW6       30.29F
SANTA FE       MOCLDY    60  57  89 N5        30.23F
TRUTH OR CONSE PTCLDY    67  61  81 W9        30.14S
TUCUMCARI      CLEAR     68  63  84 W3        30.06F
$$


USA.gov is the U.S. government's official web portal to all federal, state and local government web resources and services.